Stations météo

réclame
Mon MeteoGroup
Kleine Brogel, Belgique (6479): Température de l'air & dewpoint: 14.11.2017 12:00:00 - 20.11.2017 12:00:00 (CET)Kleine Brogel, Belgique (6479): Vitesse du vent & gusts: 14.11.2017 12:00:00 - 20.11.2017 12:00:00 (CET)Kleine Brogel, Belgique (6479): Direction du vent: 14.11.2017 12:00:00 - 20.11.2017 12:00:00 (CET)Kleine Brogel, Belgique (6479): reduced air pressure: 14.11.2017 12:00:00 - 20.11.2017 12:00:00 (CET)Kleine Brogel, Belgique (6479): visibility: 14.11.2017 12:00:00 - 20.11.2017 12:00:00 (CET)
Date & Time tt [°C] td [°C] ff [km/h] ff [knt] fx [km/h] fx [knt] dd ppp [hPa] vv [km]
20.11.2017 12:00:00 4,5 4,0 16 9 25 14 SSW 1018,1 3,0
20.11.2017 11:00:00 4,3 3,3 15 8 25 14 SSW 1019,0 10
20.11.2017 10:00:00 3,5 2,6 9 5 - - S 1019,3 10
20.11.2017 09:00:00 3,2 2,3 9 5 18 10 SSW 1020,6 10
20.11.2017 08:00:00 3,4 1,7 11 6 22 12 SW 1021,3 10
20.11.2017 07:00:00 3,7 1,6 15 8 - - SW 1021,0 10
20.11.2017 06:00:00 3,2 1,6 9 5 18 10 SW 1021,2 10
20.11.2017 05:00:00 3,0 1,7 11 6 18 10 SW 1021,3 10
20.11.2017 04:00:00 2,9 1,7 11 6 - - SW 1021,7 10
20.11.2017 03:00:00 3,0 1,7 13 7 18 10 SW 1022,2 10
20.11.2017 02:00:00 3,5 2,0 15 8 22 12 WSW 1022,6 10
20.11.2017 01:00:00 3,5 2,1 13 7 - - SW 1023,0 10
20.11.2017 00:00:00 3,4 2,3 15 8 22 12 SW 1023,1 10
19.11.2017 23:00:00 3,5 2,4 13 7 18 10 WSW 1023,2 10
19.11.2017 22:00:00 4,7 3,2 15 8 - - WSW 1023,1 10
19.11.2017 21:00:00 5,5 3,8 13 7 22 12 WSW 1022,5 10
19.11.2017 20:00:00 5,5 3,8 13 7 22 12 W 1022,2 10
19.11.2017 19:00:00 5,6 4,2 9 5 - - W 1022,0 10
19.11.2017 18:00:00 6,0 4,4 11 6 25 14 W 1021,3 9
19.11.2017 17:00:00 6,6 4,1 15 8 25 14 W 1020,8 10
19.11.2017 16:00:00 7,4 3,8 16 9 - - W 1020,5 10
19.11.2017 15:00:00 7,8 3,6 21 11 32 18 W 1020,1 10
19.11.2017 14:00:00 7,4 4,9 15 8 40 21 W 1020,0 10
19.11.2017 13:00:00 8,3 4,8 15 8 - - W 1020,0 10
19.11.2017 12:00:00 7,8 4,2 18 10 25 14 W 1019,7 10
19.11.2017 11:00:00 6,7 4,3 21 11 29 16 WSW 1019,6 10
19.11.2017 10:00:00 5,3 3,5 16 9 - - WSW 1019,1 10
19.11.2017 09:00:00 4,1 3,0 13 7 22 12 WSW 1018,7 10
19.11.2017 08:00:00 3,6 2,5 15 8 22 12 WSW 1018,2 10
19.11.2017 07:00:00 3,5 2,2 13 7 - - WSW 1017,8 10
19.11.2017 06:00:00 3,2 2,3 11 6 14 8 WSW 1017,6 10
19.11.2017 05:00:00 3,0 2,3 9 5 11 6 WSW 1017,2 10
19.11.2017 04:00:00 4,5 3,7 8 4 - - W 1017,1 10
19.11.2017 03:00:00 5,0 4,2 4 2 14 8 - 1017,0 10
19.11.2017 02:00:00 5,4 4,8 8 4 14 8 W 1016,6 10
19.11.2017 01:00:00 5,9 4,7 5 3 - - NW 1016,7 10
19.11.2017 00:00:00 5,7 5,1 15 8 18 10 WSW 1016,3 10
18.11.2017 23:00:00 6,0 5,2 13 7 22 12 WSW 1016,7 10
18.11.2017 22:00:00 6,6 6,1 15 8 - - WSW 1017,1 10
18.11.2017 21:00:00 6,4 5,1 9 5 25 14 WNW 1017,5 7
18.11.2017 20:00:00 6,8 5,3 15 8 25 14 SW 1017,6 10
18.11.2017 19:00:00 6,4 4,6 16 9 - - SW 1018,0 10
18.11.2017 18:00:00 6,5 4,8 15 8 29 16 WSW 1018,3 10
18.11.2017 17:00:00 6,5 4,8 18 10 29 16 WSW 1018,7 10
18.11.2017 16:00:00 6,9 3,5 22 12 - - WSW 1018,7 10
18.11.2017 15:00:00 6,9 2,6 28 15 36 19 WSW 1019,1 10
18.11.2017 14:00:00 6,6 2,8 21 11 36 19 SW 1019,7 10
18.11.2017 13:00:00 6,0 1,5 26 14 - - SW 1020,6 10
18.11.2017 12:00:00 6,0 1,4 24 13 32 18 WSW 1021,2 10
18.11.2017 11:00:00 4,5 1,4 16 9 25 14 SW 1021,8 10
18.11.2017 10:00:00 3,8 1,3 18 10 - - SW 1022,2 10
18.11.2017 09:00:00 3,5 1,2 15 8 22 12 SW 1022,8 10
18.11.2017 08:00:00 3,2 1,2 15 8 18 10 SW 1022,7 10
18.11.2017 07:00:00 3,0 1,1 15 8 - - SW 1023,0 10
18.11.2017 06:00:00 3,0 1,0 13 7 18 10 SW 1023,5 10
18.11.2017 05:00:00 2,5 1,1 11 6 14 8 SW 1024,0 10
18.11.2017 04:00:00 2,0 1,3 11 6 - - SW 1024,5 10
18.11.2017 03:00:00 2,0 1,2 5 3 7 4 SSW 1025,2 10
18.11.2017 02:00:00 1,8 0,9 8 4 11 6 SW 1025,7 10
18.11.2017 01:00:00 2,2 1,5 4 2 - - N 1026,2 12
18.11.2017 00:00:00 1,3 0,6 2 1 4 2 - 1026,5 9
17.11.2017 23:00:00 1,5 0,8 4 2 7 4 - 1026,7 7
17.11.2017 22:00:00 2,2 1,4 5 3 - - SW 1027,0 10
17.11.2017 21:00:00 1,7 1,3 5 3 7 4 WSW 1027,2 10
17.11.2017 20:00:00 1,3 1,1 2 1 4 2 - 1027,2 10
17.11.2017 19:00:00 2,4 1,7 4 2 - - - 1027,5 10
17.11.2017 18:00:00 2,9 1,9 0 0 11 6 N 1027,4 10
17.11.2017 17:00:00 4,5 2,6 2 1 7 4 - 1027,5 10
17.11.2017 16:00:00 7,0 2,2 4 2 - - - 1027,7 10
17.11.2017 15:00:00 9,3 1,7 4 2 11 6 - 1027,7 10
17.11.2017 14:00:00 9,5 0,7 4 2 14 8 - 1028,2 10
17.11.2017 13:00:00 10,3 1,0 4 2 - - - 1028,0 10
17.11.2017 12:00:00 10,1 1,5 5 3 7 4 NE 1028,4 10
17.11.2017 11:00:00 8,5 4,1 5 3 7 4 NE 1028,5 10
17.11.2017 10:00:00 6,3 5,3 4 2 - - - 1028,5 10
17.11.2017 09:00:00 3,7 3,2 2 1 4 2 - 1028,7 10
17.11.2017 08:00:00 4,1 3,2 2 1 11 6 - 1027,9 10
17.11.2017 07:00:00 5,4 4,9 5 3 - - NNW 1027,4 10
17.11.2017 06:00:00 6,1 5,7 5 3 11 6 NW 1027,0 10
17.11.2017 05:00:00 6,7 6,1 5 3 14 8 N 1026,5 6
17.11.2017 04:00:00 8,1 7,8 8 4 - - NNW 1026,2 9
17.11.2017 03:00:00 8,5 8,2 5 3 11 6 NW 1026,0 10
17.11.2017 02:00:00 8,8 8,5 8 4 22 12 N 1025,5 7
17.11.2017 01:00:00 9,3 9,1 9 5 - - NNW 1025,0 3,4
17.11.2017 00:00:00 9,3 9,0 9 5 18 10 WSW 1024,7 2,9
16.11.2017 23:00:00 9,3 8,7 13 7 18 10 WSW 1024,5 4,2
16.11.2017 22:00:00 9,0 8,3 9 5 - - WSW 1024,5 5
16.11.2017 21:00:00 9,0 8,2 11 6 14 8 WSW 1024,2 5
16.11.2017 20:00:00 9,0 8,2 9 5 14 8 SW 1024,0 7
16.11.2017 19:00:00 9,0 8,2 9 5 - - SW 1023,6 7
16.11.2017 18:00:00 9,0 8,4 11 6 18 10 SW 1023,5 6
16.11.2017 17:00:00 - - - - - - - - -
16.11.2017 16:00:00 9,0 8,5 8 4 - - SW 1023,1 4,0
16.11.2017 15:00:00 9,1 8,5 8 4 18 10 SW 1023,1 2,0
16.11.2017 14:00:00 9,5 7,9 11 6 18 10 SSW 1023,2 3,0
16.11.2017 13:00:00 9,5 7,7 11 6 - - SW 1023,7 4,0
16.11.2017 12:00:00 9,1 7,2 15 8 22 12 SW 1024,0 10
16.11.2017 11:00:00 9,3 7,1 9 5 14 8 SSW 1024,2 10
16.11.2017 10:00:00 8,3 7,2 8 4 - - SSW 1024,4 10
16.11.2017 09:00:00 7,9 6,9 8 4 14 8 SSW 1024,0 10
16.11.2017 08:00:00 7,9 7,2 5 3 14 8 SSW 1024,0 10
16.11.2017 07:00:00 7,9 7,2 9 5 - - SSW 1023,7 10
16.11.2017 06:00:00 7,8 7,3 9 5 14 8 SSW 1023,8 10
16.11.2017 05:00:00 7,8 7,4 8 4 18 10 SSW 1024,0 10
16.11.2017 04:00:00 8,1 7,8 11 6 - - SW 1024,5 2,5
16.11.2017 03:00:00 8,1 7,8 9 5 14 8 SW 1024,7 7
16.11.2017 02:00:00 8,3 8,0 11 6 14 8 SW 1024,7 10
16.11.2017 01:00:00 8,3 8,1 5 3 - - S 1025,0 6
16.11.2017 00:00:00 8,5 8,4 5 3 11 6 SSW 1025,5 4,5
15.11.2017 23:00:00 8,5 8,4 8 4 14 8 SSW 1025,7 2,0
15.11.2017 22:00:00 8,6 8,6 8 4 - - SSW 1025,7 2,0
15.11.2017 21:00:00 8,8 8,7 5 3 11 6 SSW 1025,7 3,0
15.11.2017 20:00:00 8,8 8,7 5 3 7 4 SW 1025,7 1,4
15.11.2017 19:00:00 8,8 8,8 5 3 - - SSW 1025,7 2,0
15.11.2017 18:00:00 9,0 8,9 4 2 7 4 - 1025,9 1,9
15.11.2017 17:00:00 9,1 8,9 5 3 11 6 SW 1025,7 1,5
15.11.2017 16:00:00 9,1 9,0 5 3 - - SW 1025,7 4,0
15.11.2017 15:00:00 9,0 8,8 5 3 14 8 SSW 1025,7 5
15.11.2017 14:00:00 8,8 8,7 5 3 14 8 SSW 1025,7 2,3
15.11.2017 13:00:00 8,6 8,4 8 4 - - SW 1026,0 1,4
15.11.2017 12:00:00 8,4 8,0 9 5 18 10 SW 1026,4 1,8
15.11.2017 11:00:00 8,1 7,9 11 6 18 10 SW 1026,5 2,6
15.11.2017 10:00:00 7,5 7,4 11 6 - - SSW 1026,4 2,2
15.11.2017 09:00:00 7,3 7,2 8 4 11 6 SSW 1026,2 2,0
15.11.2017 08:00:00 7,0 6,9 8 4 11 6 SSW 1026,0 1,5
15.11.2017 07:00:00 6,9 6,8 8 4 - - SSW 1025,7 1,5
15.11.2017 06:00:00 6,9 6,8 8 4 14 8 SSW 1025,5 1,8
15.11.2017 05:00:00 7,0 6,5 11 6 14 8 SW 1025,4 3,9
15.11.2017 04:00:00 7,0 6,4 9 5 - - SSW 1025,7 4,9
15.11.2017 03:00:00 7,0 6,5 9 5 14 8 SW 1026,0 4,7
15.11.2017 02:00:00 7,0 6,6 9 5 18 10 SW 1026,0 4,0
15.11.2017 01:00:00 7,0 6,6 11 6 - - SW 1026,0 2,4
15.11.2017 00:00:00 7,0 6,5 13 7 18 10 SSW 1026,0 4,2
14.11.2017 23:00:00 7,4 6,2 13 7 22 12 SSW 1025,9 9
14.11.2017 22:00:00 7,5 5,8 16 9 - - SW 1025,9 10
14.11.2017 21:00:00 7,6 5,8 13 7 25 14 SW 1025,7 10
14.11.2017 20:00:00 7,8 5,3 16 9 25 14 SW 1025,5 10
14.11.2017 19:00:00 8,0 4,9 16 9 - - SW 1025,2 10
14.11.2017 18:00:00 8,3 4,9 15 8 22 12 SW 1025,0 10
14.11.2017 17:00:00 8,5 4,9 15 8 25 14 SW 1024,7 10
14.11.2017 16:00:00 8,8 4,7 18 10 - - SW 1024,5 10
14.11.2017 15:00:00 9,1 4,7 18 10 29 16 SW 1024,5 10
14.11.2017 14:00:00 9,1 4,3 18 10 29 16 SW 1024,5 10
14.11.2017 13:00:00 8,9 4,1 18 10 - - SW 1024,7 10
14.11.2017 12:00:00 7,3 3,8 15 8 29 16 WSW 1025,2 10

tt = Température de l'air
td = dewpoint
ff = Vitesse du vent
fx = gusts
dd = Direction du vent
ppp = reduced air pressure
vv = visibility

stations d'obs. à proximité